QPF
0.01 0.01 0.01 0.00 0.00 0.00 0.00 0.00 0.01 0.01 0.01 0.01 0.01 0.01 0.02 0.01 0.01 0.01 0.01 0.01 0.02 0.03 0.04 0.03 0.02 0.01 0.01 0.02 0.03 0.03 0.04 0.06 0.13 0.21 0.25 0.25 0.23 0.21 0.18 0.14 0.15 0.15 0.14 0.13 0.15 0.18 0.13 0.10 0.07
0.01 0.01 0.00 0.00 0.00 0.00 0.01 0.01 0.01 0.00 0.00 0.00 0.01 0.01 0.01 0.01 0.00 0.00 0.01 0.01 0.02 0.01 0.02 0.02 0.01 0.01 0.01 0.01 0.02 0.03 0.03 0.04 0.09 0.15 0.19 0.22 0.22 0.19 0.14 0.11 0.11 0.10 0.09 0.09 0.12 0.12 0.09 0.08 0.06
0.01 0.01 0.00 0.00 0.00 0.00 0.00 0.01 0.01 0.00 0.00 0.01 0.01 0.00 0.00 0.01 0.00 0.00 0.01 0.01 0.01 0.01 0.01 0.02 0.01 0.01 0.01 0.01 0.01 0.02 0.02 0.03 0.05 0.07 0.09 0.13 0.14 0.12 0.11 0.10 0.09 0.07 0.06 0.07 0.07 0.06 0.06 0.08 0.07
0.01 0.00 0.00 0.00 0.00 0.00 0.00 0.01 0.01 0.01 0.00 0.00 0.01 0.00 0.00 0.01 0.00 0.00 0.01 0.01 0.01 0.00 0.01 0.02 0.01 0.01 0.01 0.01 0.01 0.02 0.02 0.02 0.03 0.04 0.04 0.05 0.08 0.07 0.08 0.08 0.07 0.06 0.05 0.04 0.03 0.03 0.05 0.07 0.06
0.01 0.00 0.00 0.00 0.00 0.00 0.00 0.00 0.01 0.01 0.01 0.00 0.00 0.00 0.01 0.02 0.01 0.00 0.01 0.01 0.01 0.00 0.01 0.02 0.01 0.00 0.01 0.01 0.01 0.01 0.01 0.02 0.03 0.03 0.03 0.02 0.03 0.04 0.05 0.05 0.05 0.04 0.03 0.02 0.02 0.03 0.04 0.05 0.05
0.00 0.00 0.00 0.00 0.00 0.00 0.00 0.00 0.01 0.01 0.01 0.01 0.00 0.00 0.01 0.03 0.01 0.00 0.01 0.01 0.01 0.01 0.00 0.01 0.01 0.01 0.00 0.01 0.01 0.01 0.01 0.01 0.03 0.03 0.02 0.02 0.02 0.02 0.02 0.03 0.03 0.02 0.02 0.02 0.02 0.02 0.03 0.03 0.03
0.00 0.00 0.00 0.00 0.00 0.00 0.00 0.00 0.00 0.00 0.00 0.00 0.00 0.00 0.01 0.02 0.02 0.01 0.01 0.01 0.01 0.01 0.00 0.00 0.01 0.01 0.01 0.01 0.01 0.02 0.03 0.02 0.02 0.03 0.02 0.03 0.03 0.02 0.02 0.02 0.02 0.02 0.01 0.02 0.02 0.02 0.03 0.03 0.03
0.00 0.00 0.00 0.00 0.00 0.00 0.00 0.00 0.00 0.00 0.00 0.00 0.00 0.00 0.00 0.01 0.02 0.01 0.01 0.01 0.01 0.01 0.00 0.00 0.00 0.00 0.00 0.01 0.01 0.02 0.02 0.02 0.02 0.03 0.02 0.02 0.02 0.02 0.03 0.03 0.02 0.02 0.01 0.01 0.01 0.02 0.02 0.04 0.05
0.00 0.00 0.00 0.00 0.00 0.00 0.00 0.00 0.00 0.00 0.00 0.00 0.00 0.00 0.00 0.00 0.00 0.01 0.01 0.01 0.01 0.01 0.01 0.01 0.01 0.01 0.01 0.01 0.01 0.01 0.01 0.01 0.01 0.02 0.02 0.02 0.01 0.01 0.02 0.03 0.03 0.02 0.01 0.01 0.01 0.02 0.02 0.03 0.04
0.00 0.00 0.00 0.00 0.00 0.00 0.00 0.00 0.00 0.00 0.00 0.00 0.00 0.00 0.00 0.00 0.01 0.01 0.01 0.01 0.01 0.01 0.01 0.01 0.01 0.01 0.01 0.01 0.01 0.00 0.00 0.01 0.00 0.00 0.01 0.00 0.01 0.01 0.01 0.02 0.04 0.03 0.03 0.02 0.02 0.03 0.02 0.02 0.01
0.00 0.00 0.00 0.00 0.00 0.00 0.00 0.00 0.00 0.00 0.00 0.00 0.00 0.00 0.00 0.00 0.01 0.01 0.01 0.01 0.01 0.01 0.00 0.00 0.01 0.01 0.01 0.01 0.01 0.01 0.01 0.00 0.00 0.01 0.01 0.01 0.01 0.01 0.01 0.01 0.02 0.01 0.01 0.01 0.02 0.02 0.01 0.01 0.01
0.00 0.00 0.00 0.00 0.00 0.00 0.00 0.00 0.00 0.00 0.00 0.00 0.00 0.00 0.00 0.00 0.00 0.01 0.01 0.00 0.01 0.01 0.01 0.01 0.02 0.01 0.01 0.01 0.01 0.01 0.01 0.01 0.01 0.01 0.02 0.02 0.02 0.01 0.01 0.02 0.01 0.01 0.01 0.01 0.02 0.02 0.02 0.01 0.01
0.00 0.00 0.00 0.00 0.00 0.00 0.00 0.00 0.00 0.00 0.00 0.00 0.00 0.00 0.00 0.00 0.00 0.01 0.01 0.01 0.01 0.01 0.02 0.02 0.02 0.02 0.03 0.02 0.01 0.01 0.01 0.02 0.02 0.02 0.03 0.02 0.01 0.01 0.00 0.01 0.01 0.01 0.01 0.01 0.01 0.02 0.02 0.01 0.01
0.01 0.00 0.00 0.00 0.01 0.00 0.00 0.00 0.00 0.00 0.00 0.00 0.00 0.00 0.00 0.00 0.00 0.01 0.01 0.01 0.01 0.01 0.02 0.03 0.02 0.04 0.05 0.03 0.02 0.01 0.01 0.01 0.02 0.02 0.02 0.01 0.01 0.01 0.01 0.01 0.01 0.01 0.01 0.01 0.01 0.01 0.01 0.01 0.01
0.00 0.00 0.00 0.00 0.01 0.00 0.00 0.00 0.00 0.00 0.00 0.00 0.00 0.00 0.00 0.01 0.01 0.01 0.01 0.01 0.01 0.01 0.01 0.02 0.03 0.04 0.05 0.04 0.04 0.03 0.03 0.04 0.02 0.02 0.03 0.02 0.03 0.02 0.01 0.01 0.01 0.01 0.01 0.01 0.02 0.02 0.02 0.03 0.03
0.00 0.00 0.00 0.00 0.00 0.01 0.00 0.00 0.00 0.00 0.00 0.00 0.00 0.00 0.00 0.01 0.01 0.01 0.01 0.01 0.01 0.02 0.01 0.02 0.02 0.02 0.03 0.04 0.05 0.05 0.06 0.05 0.04 0.03 0.04 0.04 0.04 0.03 0.02 0.01 0.01 0.02 0.01 0.02 0.03 0.03 0.03 0.04 0.04
0.01 0.00 0.00 0.00 0.00 0.00 0.00 0.00 0.00 0.00 0.00 0.00 0.00 0.00 0.01 0.01 0.01 0.01 0.01 0.01 0.01 0.02 0.03 0.03 0.02 0.02 0.03 0.03 0.03 0.04 0.05 0.04 0.04 0.04 0.03 0.03 0.04 0.03 0.01 0.01 0.02 0.01 0.02 0.02 0.03 0.03 0.04 0.05 0.05
0.01 0.00 0.00 0.00 0.00 0.00 0.00 0.00 0.00 0.00 0.00 0.00 0.00 0.00 0.01 0.01 0.01 0.01 0.02 0.02 0.02 0.03 0.03 0.02 0.01 0.02 0.03 0.03 0.04 0.03 0.03 0.03 0.03 0.02 0.02 0.02 0.02 0.02 0.01 0.01 0.01 0.01 0.02 0.03 0.03 0.05 0.05 0.05 0.07
0.00 0.00 0.00 0.00 0.00 0.00 0.00 0.01 0.00 0.00 0.00 0.00 0.00 0.01 0.02 0.02 0.01 0.01 0.01 0.01 0.02 0.02 0.02 0.01 0.01 0.02 0.02 0.02 0.03 0.02 0.02 0.03 0.02 0.02 0.03 0.02 0.02 0.02 0.02 0.03 0.02 0.02 0.02 0.02 0.03 0.06 0.08 0.05 0.06
0.00 0.00 0.00 0.00 0.00 0.00 0.00 0.00 0.00 0.00 0.00 0.00 0.02 0.03 0.03 0.02 0.01 0.01 0.01 0.02 0.02 0.02 0.02 0.02 0.01 0.01 0.02 0.03 0.02 0.02 0.03 0.03 0.02 0.02 0.02 0.02 0.02 0.02 0.03 0.04 0.04 0.03 0.02 0.02 0.04 0.06 0.07 0.06 0.06
0.00 0.00 0.00 0.00 0.00 0.00 0.00 0.00 0.00 0.00 0.00 0.00 0.01 0.02 0.01 0.02 0.01 0.01 0.01 0.02 0.02 0.03 0.02 0.02 0.02 0.01 0.03 0.03 0.02 0.02 0.02 0.03 0.03 0.02 0.02 0.02 0.02 0.02 0.03 0.03 0.03 0.03 0.02 0.03 0.05 0.05 0.06 0.06 0.05
0.00 0.00 0.00 0.00 0.00 0.00 0.00 0.00 0.00 0.00 0.00 0.00 0.00 0.00 0.00 0.01 0.01 0.01 0.01 0.02 0.02 0.02 0.01 0.02 0.02 0.02 0.03 0.03 0.02 0.02 0.02 0.03 0.02 0.02 0.03 0.03 0.03 0.03 0.05 0.03 0.03 0.05 0.05 0.04 0.05 0.04 0.05 0.06 0.05
0.00 0.00 0.00 0.00 0.00 0.00 0.00 0.00 0.00 0.00 0.00 0.00 0.00 0.00 0.00 0.00 0.00 0.00 0.01 0.01 0.02 0.02 0.02 0.02 0.02 0.02 0.03 0.03 0.02 0.02 0.02 0.02 0.03 0.03 0.02 0.02 0.02 0.03 0.04 0.03 0.04 0.04 0.05 0.04 0.03 0.03 0.04 0.05 0.05
0.00 0.00 0.00 0.00 0.00 0.00 0.00 0.00 0.00 0.00 0.00 0.00 0.00 0.00 0.01 0.01 0.01 0.01 0.01 0.02 0.02 0.01 0.02 0.02 0.02 0.03 0.03 0.03 0.02 0.02 0.03 0.03 0.04 0.03 0.03 0.02 0.02 0.03 0.03 0.02 0.03 0.04 0.05 0.05 0.05 0.05 0.04 0.03 0.03
0.00 0.00 0.00 0.00 0.00 0.00 0.00 0.00 0.00 0.00 0.00 0.00 0.00 0.00 0.01 0.01 0.04 0.06 0.03 0.02 0.01 0.01 0.01 0.01 0.02 0.03 0.04 0.02 0.02 0.02 0.01 0.02 0.03 0.03 0.04 0.03 0.03 0.03 0.03 0.04 0.04 0.05 0.06 0.07 0.07 0.06 0.03 0.03 0.04
0.00 0.00 0.00 0.00 0.00 0.00 0.00 0.00 0.00 0.00 0.00 0.00 0.00 0.00 0.01 0.01 0.07 0.13 0.05 0.02 0.01 0.01 0.01 0.01 0.02 0.03 0.04 0.02 0.01 0.01 0.02 0.02 0.02 0.03 0.03 0.04 0.04 0.05 0.06 0.07 0.08 0.08 0.08 0.09 0.07 0.06 0.05 0.04 0.05
0.00 0.00 0.00 0.00 0.00 0.00 0.00 0.00 0.00 0.00 0.00 0.00 0.01 0.01 0.01 0.02 0.06 0.08 0.04 0.01 0.01 0.01 0.01 0.01 0.01 0.02 0.03 0.01 0.00 0.00 0.01 0.02 0.02 0.02 0.03 0.04 0.05 0.05 0.06 0.07 0.09 0.08 0.08 0.09 0.08 0.06 0.06 0.07 0.07
0.00 0.00 0.00 0.00 0.00 0.00 0.00 0.00 0.00 0.00 0.00 0.00 0.01 0.01 0.01 0.05 0.09 0.06 0.03 0.01 0.01 0.00 0.00 0.00 0.00 0.01 0.01 0.00 0.00 0.00 0.00 0.00 0.01 0.01 0.03 0.04 0.05 0.05 0.05 0.05 0.06 0.06 0.06 0.07 0.07 0.06 0.07 0.07 0.06
0.00 0.00 0.00 0.00 0.00 0.00 0.00 0.00 0.00 0.00 0.00 0.00 0.00 0.00 0.00 0.02 0.01 0.02 0.01 0.00 0.00 0.00 0.00 0.00 0.00 0.00 0.00 0.00 0.01 0.01 0.00 0.01 0.01 0.01 0.02 0.02 0.03 0.05 0.08 0.10 0.11 0.10 0.07 0.07 0.06 0.05 0.06 0.06 0.06
0.00 0.00 0.00 0.00 0.00 0.00 0.00 0.00 0.00 0.00 0.00 0.00 0.00 0.00 0.00 0.00 0.01 0.01 0.00 0.00 0.00 0.00 0.00 0.00 0.00 0.01 0.01 0.01 0.01 0.01 0.00 0.01 0.01 0.01 0.01 0.02 0.03 0.05 0.05 0.07 0.11 0.12 0.11 0.08 0.06 0.05 0.05 0.05 0.06
MSLP
1007.80 1008.90 1010.25 1011.69 1013.04 1014.13 1014.88 1015.25 1015.31 1015.16 1014.93 1014.76 1014.71 1014.80 1014.99 1015.21 1015.37 1015.39 1015.24 1014.94 1014.53 1014.11 1013.73 1013.47 1013.34 1013.32 1013.38 1013.44 1013.47 1013.45 1013.36 1013.25 1013.16 1013.12 1013.15 1013.27 1013.43 1013.62 1013.78 1013.89 1013.93 1013.91 1013.85 1013.78 1013.75 1013.77 1013.85 1013.98 1014.15
1008.34 1009.67 1011.18 1012.70 1014.02 1015.00 1015.56 1015.70 1015.51 1015.11 1014.68 1014.34 1014.17 1014.20 1014.38 1014.63 1014.84 1014.94 1014.89 1014.68 1014.38 1014.04 1013.75 1013.55 1013.47 1013.48 1013.56 1013.65 1013.70 1013.71 1013.66 1013.59 1013.54 1013.54 1013.61 1013.74 1013.91 1014.09 1014.24 1014.33 1014.36 1014.33 1014.27 1014.22 1014.20 1014.24 1014.33 1014.47 1014.64
1009.07 1010.57 1012.18 1013.69 1014.92 1015.74 1016.09 1016.00 1015.59 1015.00 1014.41 1013.96 1013.73 1013.72 1013.91 1014.17 1014.43 1014.59 1014.60 1014.47 1014.24 1013.99 1013.76 1013.63 1013.60 1013.67 1013.78 1013.90 1013.99 1014.02 1014.01 1013.98 1013.96 1013.97 1014.05 1014.17 1014.33 1014.49 1014.61 1014.68 1014.71 1014.68 1014.64 1014.62 1014.63 1014.70 1014.81 1014.96 1015.14
1009.92 1011.52 1013.14 1014.58 1015.66 1016.29 1016.43 1016.15 1015.56 1014.85 1014.18 1013.69 1013.45 1013.45 1013.65 1013.94 1014.23 1014.41 1014.46 1014.37 1014.20 1014.01 1013.85 1013.78 1013.80 1013.91 1014.06 1014.21 1014.32 1014.38 1014.39 1014.38 1014.37 1014.39 1014.45 1014.56 1014.69 1014.81 1014.92 1014.97 1015.00 1014.99 1014.99 1015.00 1015.06 1015.16 1015.29 1015.46 1015.64
1010.78 1012.39 1013.94 1015.23 1016.13 1016.57 1016.53 1016.11 1015.43 1014.69 1014.03 1013.58 1013.39 1013.44 1013.67 1013.98 1014.27 1014.46 1014.52 1014.46 1014.32 1014.16 1014.05 1014.03 1014.10 1014.24 1014.41 1014.57 1014.69 1014.76 1014.77 1014.76 1014.74 1014.76 1014.80 1014.89 1014.99 1015.10 1015.18 1015.23 1015.26 1015.28 1015.32 1015.37 1015.47 1015.60 1015.77 1015.95 1016.13
1011.50 1013.04 1014.45 1015.56 1016.27 1016.52 1016.36 1015.87 1015.20 1014.51 1013.95 1013.61 1013.53 1013.66 1013.94 1014.28 1014.56 1014.74 1014.78 1014.72 1014.59 1014.46 1014.39 1014.39 1014.49 1014.64 1014.81 1014.96 1015.07 1015.12 1015.12 1015.10 1015.07 1015.08 1015.12 1015.19 1015.28 1015.37 1015.44 1015.49 1015.54 1015.58 1015.64 1015.73 1015.87 1016.03 1016.22 1016.41 1016.59
1011.99 1013.39 1014.60 1015.51 1016.02 1016.14 1015.91 1015.43 1014.85 1014.30 1013.92 1013.75 1013.80 1014.04 1014.38 1014.73 1015.00 1015.15 1015.18 1015.10 1014.98 1014.87 1014.81 1014.84 1014.94 1015.09 1015.24 1015.37 1015.44 1015.46 1015.43 1015.40 1015.37 1015.37 1015.41 1015.49 1015.58 1015.66 1015.73 1015.79 1015.83 1015.89 1015.96 1016.08 1016.23 1016.41 1016.60 1016.80 1016.99
1012.21 1013.42 1014.41 1015.11 1015.46 1015.48 1015.24 1014.84 1014.40 1014.05 1013.88 1013.90 1014.12 1014.46 1014.86 1015.21 1015.47 1015.59 1015.59 1015.50 1015.38 1015.29 1015.26 1015.30 1015.40 1015.53 1015.66 1015.74 1015.77 1015.75 1015.71 1015.66 1015.63 1015.65 1015.71 1015.80 1015.91 1016.00 1016.07 1016.12 1016.16 1016.21 1016.28 1016.39 1016.53 1016.72 1016.92 1017.12 1017.31
1012.20 1013.19 1013.97 1014.48 1014.69 1014.66 1014.45 1014.16 1013.90 1013.77 1013.80 1014.02 1014.38 1014.81 1015.24 1015.59 1015.82 1015.91 1015.89 1015.80 1015.70 1015.64 1015.64 1015.70 1015.80 1015.92 1016.01 1016.06 1016.05 1016.00 1015.94 1015.88 1015.88 1015.92 1016.02 1016.14 1016.27 1016.38 1016.45 1016.49 1016.51 1016.53 1016.58 1016.66 1016.79 1016.96 1017.15 1017.36 1017.56
1012.04 1012.84 1013.42 1013.76 1013.88 1013.82 1013.66 1013.50 1013.41 1013.47 1013.70 1014.06 1014.52 1015.01 1015.45 1015.78 1015.98 1016.04 1016.01 1015.94 1015.87 1015.84 1015.88 1015.97 1016.09 1016.21 1016.28 1016.30 1016.26 1016.19 1016.12 1016.08 1016.11 1016.19 1016.32 1016.48 1016.64 1016.76 1016.84 1016.86 1016.85 1016.84 1016.85 1016.90 1017.00 1017.15 1017.33 1017.53 1017.74
1011.89 1012.51 1012.92 1013.13 1013.17 1013.11 1013.01 1012.96 1013.02 1013.23 1013.58 1014.04 1014.55 1015.04 1015.46 1015.75 1015.91 1015.96 1015.93 1015.88 1015.85 1015.88 1015.96 1016.10 1016.25 1016.37 1016.44 1016.45 1016.40 1016.33 1016.27 1016.25 1016.30 1016.42 1016.60 1016.80 1016.98 1017.12 1017.19 1017.20 1017.17 1017.12 1017.09 1017.10 1017.17 1017.30 1017.47 1017.68 1017.88
1011.86 1012.34 1012.62 1012.73 1012.73 1012.66 1012.61 1012.64 1012.80 1013.09 1013.50 1013.99 1014.49 1014.95 1015.32 1015.56 1015.68 1015.70 1015.68 1015.66 1015.68 1015.76 1015.90 1016.09 1016.27 1016.41 1016.50 1016.51 1016.47 1016.41 1016.36 1016.37 1016.45 1016.60 1016.80 1017.03 1017.24 1017.38 1017.46 1017.47 1017.42 1017.35 1017.29 1017.28 1017.33 1017.44 1017.61 1017.81 1018.02
1012.05 1012.42 1012.60 1012.65 1012.60 1012.54 1012.52 1012.59 1012.79 1013.10 1013.51 1013.97 1014.43 1014.82 1015.11 1015.29 1015.37 1015.38 1015.37 1015.37 1015.44 1015.57 1015.76 1015.98 1016.20 1016.37 1016.47 1016.51 1016.48 1016.44 1016.41 1016.43 1016.53 1016.70 1016.92 1017.15 1017.37 1017.53 1017.61 1017.62 1017.57 1017.51 1017.45 1017.44 1017.48 1017.59 1017.75 1017.94 1018.16
1012.47 1012.76 1012.87 1012.87 1012.80 1012.73 1012.72 1012.80 1012.99 1013.28 1013.65 1014.04 1014.41 1014.73 1014.95 1015.08 1015.12 1015.12 1015.11 1015.14 1015.22 1015.38 1015.60 1015.84 1016.08 1016.27 1016.40 1016.46 1016.46 1016.44 1016.42 1016.45 1016.54 1016.70 1016.91 1017.14 1017.35 1017.51 1017.61 1017.64 1017.63 1017.58 1017.55 1017.56 1017.61 1017.73 1017.89 1018.09 1018.29
1013.05 1013.27 1013.34 1013.30 1013.21 1013.14 1013.13 1013.19 1013.35 1013.60 1013.89 1014.20 1014.50 1014.74 1014.90 1014.99 1015.01 1015.01 1015.00 1015.03 1015.12 1015.27 1015.48 1015.73 1015.97 1016.17 1016.32 1016.40 1016.42 1016.42 1016.41 1016.43 1016.50 1016.63 1016.80 1017.00 1017.19 1017.36 1017.47 1017.54 1017.56 1017.57 1017.58 1017.63 1017.71 1017.85 1018.02 1018.22 1018.41
1013.68 1013.84 1013.87 1013.81 1013.73 1013.66 1013.64 1013.68 1013.80 1013.98 1014.21 1014.44 1014.66 1014.85 1014.98 1015.05 1015.07 1015.07 1015.06 1015.09 1015.16 1015.28 1015.46 1015.67 1015.89 1016.09 1016.25 1016.35 1016.40 1016.40 1016.40 1016.40 1016.43 1016.51 1016.63 1016.77 1016.93 1017.09 1017.22 1017.32 1017.40 1017.47 1017.54 1017.63 1017.76 1017.92 1018.10 1018.30 1018.49
1014.22 1014.34 1014.34 1014.29 1014.23 1014.17 1014.15 1014.18 1014.26 1014.37 1014.53 1014.69 1014.86 1015.01 1015.13 1015.22 1015.26 1015.27 1015.27 1015.28 1015.31 1015.39 1015.51 1015.67 1015.85 1016.03 1016.19 1016.31 1016.38 1016.41 1016.40 1016.38 1016.36 1016.37 1016.42 1016.51 1016.62 1016.76 1016.89 1017.03 1017.16 1017.29 1017.42 1017.56 1017.72 1017.90 1018.10 1018.30 1018.49
1014.57 1014.66 1014.67 1014.65 1014.63 1014.61 1014.61 1014.62 1014.65 1014.71 1014.79 1014.89 1015.02 1015.16 1015.29 1015.40 1015.48 1015.52 1015.53 1015.53 1015.52 1015.54 1015.59 1015.69 1015.83 1015.99 1016.15 1016.29 1016.39 1016.43 1016.42 1016.38 1016.32 1016.27 1016.24 1016.26 1016.32 1016.42 1016.55 1016.71 1016.87 1017.04 1017.22 1017.40 1017.58 1017.77 1017.98 1018.19 1018.39
1014.69 1014.77 1014.83 1014.89 1014.94 1014.98 1015.00 1015.00 1014.98 1014.96 1014.96 1014.99 1015.07 1015.19 1015.34 1015.49 1015.62 1015.71 1015.75 1015.74 1015.71 1015.67 1015.66 1015.70 1015.80 1015.94 1016.10 1016.26 1016.40 1016.47 1016.48 1016.43 1016.33 1016.22 1016.12 1016.07 1016.07 1016.13 1016.24 1016.40 1016.58 1016.77 1016.96 1017.15 1017.34 1017.54 1017.74 1017.96 1018.18
1014.60 1014.74 1014.89 1015.06 1015.22 1015.33 1015.38 1015.35 1015.26 1015.13 1015.02 1014.95 1014.96 1015.04 1015.20 1015.40 1015.59 1015.74 1015.82 1015.83 1015.79 1015.72 1015.66 1015.66 1015.72 1015.85 1016.03 1016.23 1016.40 1016.52 1016.55 1016.51 1016.39 1016.24 1016.09 1015.97 1015.91 1015.92 1016.00 1016.14 1016.31 1016.49 1016.67 1016.85 1017.02 1017.20 1017.40 1017.62 1017.87
1014.41 1014.65 1014.95 1015.28 1015.57 1015.76 1015.83 1015.75 1015.55 1015.27 1015.00 1014.78 1014.68 1014.71 1014.86 1015.09 1015.34 1015.56 1015.70 1015.76 1015.73 1015.65 1015.58 1015.55 1015.59 1015.72 1015.92 1016.16 1016.38 1016.55 1016.63 1016.61 1016.50 1016.33 1016.14 1015.97 1015.86 1015.83 1015.86 1015.96 1016.09 1016.24 1016.39 1016.53 1016.66 1016.81 1016.98 1017.20 1017.47
1014.24 1014.65 1015.14 1015.65 1016.08 1016.36 1016.41 1016.25 1015.89 1015.42 1014.94 1014.54 1014.29 1014.22 1014.33 1014.58 1014.89 1015.19 1015.41 1015.53 1015.55 1015.49 1015.42 1015.38 1015.43 1015.57 1015.79 1016.07 1016.35 1016.57 1016.70 1016.72 1016.64 1016.47 1016.27 1016.07 1015.92 1015.84 1015.83 1015.88 1015.96 1016.06 1016.14 1016.22 1016.30 1016.39 1016.53 1016.73 1017.00
1014.21 1014.83 1015.54 1016.24 1016.81 1017.14 1017.16 1016.87 1016.32 1015.62 1014.89 1014.26 1013.83 1013.65 1013.71 1013.96 1014.32 1014.69 1015.01 1015.21 1015.29 1015.28 1015.23 1015.20 1015.25 1015.40 1015.65 1015.96 1016.29 1016.57 1016.77 1016.84 1016.79 1016.65 1016.45 1016.25 1016.08 1015.96 1015.91 1015.90 1015.93 1015.96 1015.97 1015.98 1015.98 1016.01 1016.10 1016.26 1016.52
1014.40 1015.23 1016.16 1017.04 1017.71 1018.06 1018.01 1017.57 1016.81 1015.85 1014.87 1014.00 1013.38 1013.07 1013.07 1013.32 1013.72 1014.18 1014.58 1014.87 1015.02 1015.06 1015.05 1015.04 1015.10 1015.26 1015.52 1015.87 1016.24 1016.57 1016.82 1016.95 1016.96 1016.86 1016.68 1016.49 1016.31 1016.17 1016.08 1016.03 1016.00 1015.96 1015.90 1015.83 1015.76 1015.72 1015.74 1015.85 1016.08
1014.79 1015.82 1016.93 1017.94 1018.68 1019.01 1018.87 1018.26 1017.28 1016.08 1014.86 1013.78 1012.99 1012.56 1012.50 1012.74 1013.19 1013.72 1014.20 1014.57 1014.80 1014.89 1014.91 1014.92 1014.98 1015.15 1015.43 1015.79 1016.20 1016.58 1016.88 1017.07 1017.14 1017.08 1016.95 1016.78 1016.60 1016.45 1016.34 1016.25 1016.16 1016.07 1015.95 1015.81 1015.67 1015.55 1015.50 1015.55 1015.71
1015.31 1016.49 1017.72 1018.80 1019.55 1019.83 1019.58 1018.81 1017.65 1016.24 1014.83 1013.58 1012.66 1012.15 1012.05 1012.30 1012.79 1013.37 1013.92 1014.35 1014.63 1014.77 1014.82 1014.84 1014.91 1015.08 1015.37 1015.75 1016.18 1016.60 1016.96 1017.21 1017.33 1017.33 1017.24 1017.10 1016.94 1016.79 1016.66 1016.55 1016.43 1016.29 1016.12 1015.93 1015.73 1015.55 1015.43 1015.40 1015.47
1015.84 1017.10 1018.37 1019.45 1020.17 1020.37 1020.00 1019.11 1017.80 1016.27 1014.73 1013.39 1012.40 1011.86 1011.74 1012.00 1012.51 1013.13 1013.72 1014.20 1014.51 1014.67 1014.74 1014.77 1014.85 1015.03 1015.33 1015.73 1016.20 1016.66 1017.07 1017.37 1017.54 1017.60 1017.55 1017.45 1017.31 1017.16 1017.03 1016.90 1016.77 1016.61 1016.41 1016.19 1015.95 1015.72 1015.53 1015.42 1015.41
1016.27 1017.52 1018.76 1019.79 1020.42 1020.52 1020.06 1019.08 1017.70 1016.11 1014.54 1013.18 1012.19 1011.65 1011.55 1011.82 1012.34 1012.96 1013.56 1014.04 1014.37 1014.55 1014.62 1014.67 1014.77 1014.97 1015.29 1015.73 1016.23 1016.73 1017.19 1017.54 1017.77 1017.87 1017.87 1017.79 1017.68 1017.55 1017.42 1017.29 1017.15 1016.99 1016.79 1016.56 1016.30 1016.05 1015.82 1015.64 1015.55
1016.52 1017.69 1018.83 1019.75 1020.26 1020.27 1019.74 1018.71 1017.33 1015.76 1014.24 1012.94 1012.00 1011.50 1011.42 1011.69 1012.19 1012.80 1013.37 1013.83 1014.14 1014.32 1014.41 1014.48 1014.62 1014.86 1015.23 1015.71 1016.26 1016.81 1017.32 1017.72 1017.99 1018.13 1018.16 1018.11 1018.01 1017.90 1017.78 1017.66 1017.54 1017.40 1017.22 1017.01 1016.76 1016.51 1016.26 1016.04 1015.88
1016.59 1017.64 1018.63 1019.40 1019.79 1019.71 1019.13 1018.11 1016.78 1015.30 1013.88 1012.68 1011.82 1011.37 1011.30 1011.56 1012.02 1012.56 1013.08 1013.49 1013.77 1013.94 1014.05 1014.17 1014.36 1014.67 1015.10 1015.65 1016.26 1016.87 1017.42 1017.87 1018.18 1018.34 1018.40 1018.36 1018.28 1018.17 1018.07 1017.98 1017.88 1017.77 1017.64 1017.47 1017.27 1017.04 1016.80 1016.57 1016.36
Thickness
5840 5836 5830 5814 5787 5759 5747 5757 5765 5762 5761 5768 5771 5765 5755 5747 5742 5737 5755 5763 5763 5762 5760 5760 5759 5759 5758 5758 5758 5759 5760 5760 5760 5760 5761 5761 5761 5761 5761 5761 5760 5760 5759 5758 5758 5757 5756 5755 5755
5843 5837 5824 5802 5767 5738 5743 5759 5760 5764 5769 5774 5772 5766 5757 5751 5756 5756 5759 5763 5763 5761 5760 5758 5758 5758 5757 5757 5757 5758 5758 5758 5758 5758 5759 5759 5759 5758 5759 5758 5758 5757 5757 5757 5756 5755 5754 5754 5753
5844 5838 5812 5787 5760 5745 5749 5762 5765 5772 5778 5776 5768 5766 5758 5753 5759 5759 5763 5764 5762 5760 5759 5758 5757 5757 5756 5756 5756 5756 5756 5757 5757 5757 5758 5758 5757 5756 5756 5757 5756 5756 5756 5755 5755 5754 5753 5753 5752
5841 5824 5806 5778 5761 5766 5767 5769 5773 5772 5775 5775 5769 5759 5761 5767 5766 5765 5766 5764 5761 5759 5758 5757 5756 5756 5755 5755 5755 5755 5755 5755 5755 5755 5756 5756 5755 5755 5755 5755 5754 5754 5753 5753 5753 5752 5752 5751 5751
5837 5813 5784 5765 5767 5775 5779 5780 5779 5771 5769 5770 5767 5755 5755 5767 5771 5768 5766 5763 5760 5758 5757 5756 5756 5755 5754 5754 5754 5754 5754 5754 5755 5755 5754 5754 5754 5754 5753 5753 5752 5752 5751 5751 5751 5751 5750 5750 5750
5821 5804 5769 5757 5768 5777 5780 5783 5778 5771 5769 5769 5765 5756 5754 5766 5767 5765 5765 5762 5760 5757 5756 5755 5755 5754 5754 5753 5754 5754 5754 5754 5754 5753 5753 5753 5753 5753 5752 5752 5751 5751 5750 5750 5750 5750 5749 5749 5748
5814 5793 5773 5769 5769 5772 5780 5786 5778 5772 5769 5770 5770 5755 5755 5762 5766 5766 5764 5761 5759 5757 5756 5755 5754 5754 5753 5753 5753 5753 5753 5753 5753 5753 5752 5752 5752 5752 5751 5751 5751 5750 5750 5749 5749 5749 5749 5748 5748
5827 5799 5779 5774 5771 5774 5787 5788 5785 5779 5774 5782 5778 5758 5754 5763 5767 5765 5762 5759 5758 5756 5755 5754 5754 5753 5753 5752 5753 5753 5753 5752 5752 5752 5752 5752 5751 5751 5751 5750 5750 5750 5749 5749 5749 5749 5749 5748 5747
5833 5792 5774 5779 5778 5782 5791 5786 5788 5793 5784 5783 5782 5775 5773 5773 5768 5762 5758 5756 5755 5755 5755 5754 5754 5753 5753 5752 5753 5753 5752 5752 5752 5751 5751 5751 5750 5750 5750 5750 5750 5750 5749 5749 5749 5749 5749 5748 5747
5822 5788 5790 5801 5799 5795 5795 5791 5789 5785 5778 5776 5776 5777 5777 5772 5766 5761 5757 5754 5753 5754 5755 5755 5754 5754 5753 5753 5752 5752 5752 5751 5751 5750 5750 5750 5750 5749 5749 5750 5750 5750 5750 5749 5749 5749 5748 5748 5747
5823 5805 5810 5812 5812 5807 5798 5794 5796 5783 5772 5777 5775 5774 5774 5770 5765 5762 5760 5758 5757 5756 5756 5756 5755 5755 5754 5753 5752 5752 5751 5750 5750 5750 5749 5749 5749 5749 5748 5749 5749 5749 5749 5749 5749 5748 5748 5747 5746
5824 5820 5821 5816 5816 5809 5801 5797 5792 5788 5787 5794 5790 5785 5777 5770 5767 5765 5763 5761 5760 5758 5758 5758 5757 5756 5754 5753 5753 5752 5751 5750 5750 5749 5749 5748 5748 5748 5748 5748 5748 5748 5749 5749 5748 5748 5748 5747 5746
5824 5821 5823 5821 5816 5811 5805 5798 5795 5793 5799 5798 5792 5785 5779 5774 5771 5770 5768 5765 5762 5760 5760 5760 5759 5757 5756 5754 5753 5752 5751 5750 5750 5749 5749 5748 5748 5748 5748 5748 5748 5748 5749 5748 5748 5748 5747 5747 5746
5825 5822 5818 5816 5814 5811 5801 5798 5796 5794 5800 5795 5789 5784 5781 5778 5775 5771 5768 5766 5764 5764 5763 5763 5761 5759 5757 5755 5754 5753 5752 5751 5750 5749 5749 5748 5748 5748 5748 5747 5748 5748 5748 5748 5747 5747 5747 5747 5746
5828 5813 5808 5809 5810 5808 5803 5789 5793 5800 5799 5791 5788 5785 5783 5781 5779 5775 5773 5770 5769 5768 5767 5765 5763 5761 5758 5757 5755 5754 5753 5752 5751 5750 5750 5749 5749 5748 5748 5747 5747 5748 5748 5748 5747 5747 5747 5747 5746
5816 5799 5787 5802 5807 5807 5795 5777 5796 5803 5797 5789 5788 5787 5784 5782 5781 5781 5778 5776 5774 5772 5769 5767 5767 5763 5760 5758 5756 5755 5754 5753 5752 5751 5750 5750 5749 5749 5748 5747 5748 5748 5748 5748 5747 5747 5746 5745 5745
5794 5781 5782 5795 5808 5805 5794 5784 5798 5803 5798 5790 5789 5788 5785 5782 5782 5783 5782 5780 5777 5775 5772 5769 5768 5765 5762 5759 5758 5756 5755 5753 5753 5752 5751 5751 5750 5749 5748 5748 5748 5748 5747 5747 5747 5746 5745 5744 5743
5784 5783 5786 5789 5804 5802 5792 5790 5799 5803 5800 5794 5792 5790 5787 5784 5785 5786 5785 5783 5780 5777 5774 5771 5769 5766 5764 5761 5758 5756 5755 5754 5753 5752 5752 5751 5750 5750 5749 5748 5748 5748 5747 5746 5746 5745 5745 5743 5742
5803 5793 5788 5796 5810 5801 5793 5792 5797 5802 5800 5795 5792 5790 5788 5788 5791 5789 5787 5785 5781 5777 5774 5772 5769 5766 5764 5760 5757 5755 5753 5753 5753 5753 5752 5751 5751 5750 5749 5749 5748 5747 5746 5746 5745 5744 5743 5742 5741
5804 5795 5792 5800 5810 5803 5792 5792 5800 5803 5803 5803 5799 5795 5792 5790 5789 5789 5788 5785 5782 5778 5775 5773 5770 5768 5765 5763 5760 5758 5756 5755 5754 5753 5753 5752 5751 5751 5750 5749 5748 5747 5746 5745 5745 5743 5741 5740 5740
5802 5797 5796 5795 5801 5800 5793 5786 5793 5802 5806 5806 5805 5803 5799 5796 5791 5790 5788 5786 5783 5780 5777 5776 5773 5770 5767 5764 5761 5758 5756 5754 5753 5752 5752 5752 5751 5751 5749 5749 5748 5748 5746 5745 5744 5743 5741 5738 5738
5794 5811 5807 5798 5784 5772 5783 5761 5785 5794 5797 5802 5805 5805 5803 5802 5799 5795 5792 5788 5786 5784 5781 5778 5775 5772 5769 5766 5763 5758 5754 5750 5751 5751 5751 5751 5751 5750 5749 5748 5748 5747 5746 5745 5745 5744 5742 5739 5736
5806 5813 5805 5795 5780 5768 5773 5763 5775 5791 5791 5800 5808 5810 5810 5808 5805 5800 5797 5794 5791 5789 5784 5780 5776 5773 5770 5768 5764 5760 5756 5753 5752 5751 5750 5749 5750 5749 5749 5748 5748 5747 5746 5745 5744 5743 5741 5740 5737
5813 5799 5787 5774 5766 5752 5767 5761 5768 5784 5798 5808 5815 5817 5816 5813 5809 5805 5802 5798 5793 5790 5786 5782 5777 5773 5771 5768 5765 5761 5757 5753 5750 5749 5748 5747 5747 5748 5748 5747 5747 5746 5745 5744 5743 5742 5740 5739 5737
5801 5775 5748 5745 5736 5744 5766 5763 5773 5805 5814 5818 5820 5820 5820 5817 5811 5805 5801 5798 5794 5790 5786 5782 5777 5774 5772 5769 5766 5763 5759 5755 5752 5749 5747 5746 5745 5745 5745 5746 5745 5745 5744 5743 5741 5740 5738 5737 5735
5790 5778 5748 5736 5732 5743 5760 5760 5789 5817 5824 5827 5828 5826 5822 5818 5814 5809 5807 5803 5798 5794 5789 5785 5780 5776 5773 5770 5767 5764 5761 5757 5753 5751 5749 5747 5745 5744 5744 5744 5743 5742 5741 5741 5739 5737 5736 5735 5733
5782 5774 5775 5750 5744 5740 5749 5768 5795 5819 5821 5824 5825 5824 5821 5819 5817 5815 5812 5807 5802 5797 5793 5789 5783 5778 5774 5772 5768 5764 5761 5758 5754 5752 5749 5747 5745 5744 5742 5741 5740 5739 5738 5737 5736 5734 5732 5731 5730
5794 5775 5757 5744 5730 5731 5748 5760 5775 5802 5811 5818 5820 5821 5821 5820 5819 5817 5814 5810 5805 5801 5796 5792 5786 5781 5776 5772 5769 5765 5761 5758 5755 5751 5748 5746 5744 5742 5740 5738 5736 5735 5734 5733 5732 5730 5729 5728 5726
5778 5769 5755 5741 5743 5730 5732 5755 5800 5806 5815 5817 5821 5824 5824 5822 5821 5818 5815 5811 5807 5802 5797 5792 5786 5781 5776 5772 5768 5764 5760 5756 5753 5749 5747 5744 5742 5739 5737 5735 5733 5731 5730 5729 5727 5726 5724 5723 5722
5788 5774 5760 5749 5741 5736 5736 5759 5814 5814 5819 5820 5822 5824 5824 5823 5822 5819 5815 5811 5806 5801 5796 5792 5787 5781 5777 5772 5767 5762 5759 5755 5751 5748 5745 5742 5739 5736 5734 5732 5729 5727 5725 5724 5723 5721 5720 5718 5717